Wind_Speed
74 76 79 81 82 82 82 82 83 82 79 76 77 79 81 84 87 87 85 83 78 70 65 64 64 62 59 58 57 57 56 56 57 58 57 57 56 56 55 55 54 54 54 54 54 55 56 57 58 57 57 56 56 57 58 58 58 58 58 59 59 59 61
66 70 73 77 79 81 81 80 81 83 83 79 77 77 78 80 82 85 86 85 82 76 69 65 65 65 63 62 61 60 59 58 57 57 56 55 54 54 53 53 53 53 52 52 53 56 58 58 58 59 58 57 57 58 59 59 59 59 59 59 60 61 62
58 62 66 70 74 77 79 79 79 81 83 83 81 78 78 78 79 81 83 85 84 81 74 68 66 67 67 66 65 62 61 60 58 56 55 54 53 53 52 51 51 51 51 51 52 54 56 57 57 58 59 59 59 58 59 60 59 60 60 61 62 63 63
49 54 59 63 68 72 76 78 79 79 80 82 83 81 79 78 79 79 80 81 82 81 77 71 68 67 68 69 68 64 62 61 59 57 56 56 54 52 50 49 49 49 49 49 50 51 53 54 56 57 58 59 59 59 59 60 60 61 61 62 64 65 64
41 45 49 54 60 66 71 76 79 80 81 81 81 81 80 80 80 80 79 79 79 78 77 75 71 68 69 71 70 66 63 62 61 59 57 56 54 51 49 48 48 49 49 49 50 51 52 54 55 56 57 58 58 59 59 60 61 62 62 64 65 66 65
38 41 43 46 50 56 62 67 73 77 81 82 83 82 82 81 82 82 81 80 79 78 77 75 72 71 71 72 71 67 64 63 62 60 57 56 55 52 49 49 49 50 50 50 50 51 52 53 54 55 57 58 58 59 59 60 61 61 62 64 66 66 66
40 42 43 44 46 49 53 58 63 68 73 78 81 83 84 83 83 84 83 81 80 79 77 75 73 72 73 73 71 67 64 64 64 62 59 58 58 55 52 51 51 51 50 50 50 51 51 51 52 53 53 54 55 55 56 58 58 59 61 63 64 65 66
44 45 46 46 47 48 51 54 57 60 64 68 73 77 81 82 83 84 85 84 82 80 78 76 75 74 73 73 72 67 63 64 65 63 60 58 58 57 55 53 52 51 50 49 50 50 50 50 49 48 48 49 49 49 50 52 53 55 58 61 63 64 65
48 49 49 49 49 49 51 53 55 57 60 63 66 69 73 76 78 81 83 85 84 82 79 77 75 74 74 74 72 68 64 64 64 63 61 60 59 58 56 54 52 51 51 51 51 51 50 48 46 46 46 46 46 47 48 50 52 54 57 59 60 62 65
50 51 51 51 50 50 51 52 53 54 56 59 61 63 66 68 71 74 78 82 85 82 79 77 75 74 74 74 72 68 64 62 62 61 60 61 61 59 57 55 54 53 53 52 51 50 48 46 44 44 44 45 46 47 49 51 53 55 57 58 58 60 63
51 51 51 51 49 48 48 48 48 49 50 52 54 56 59 61 64 67 71 76 82 82 79 76 74 73 73 73 70 67 63 61 59 59 59 61 62 60 58 58 57 55 53 50 48 46 44 42 41 42 43 44 46 48 50 53 55 57 58 58 57 58 60
50 50 49 47 45 44 43 43 42 42 42 42 43 46 49 52 56 60 64 68 74 79 79 76 74 72 70 69 67 65 63 60 59 58 58 60 62 61 60 60 58 54 50 47 46 44 42 41 40 41 43 45 47 49 52 55 57 59 58 57 57 56 57
49 46 42 39 38 38 38 37 37 36 35 34 34 37 40 44 48 52 56 60 65 72 78 76 74 72 69 66 64 63 61 61 60 58 58 60 60 59 59 58 55 52 49 47 45 44 43 43 42 43 45 46 49 52 55 58 60 59 58 56 56 56 57
43 38 34 33 33 34 34 33 34 33 32 32 32 33 36 39 42 45 48 53 57 64 73 75 72 71 69 66 63 62 60 60 60 59 58 58 56 53 54 54 53 51 49 47 45 44 43 43 43 44 46 49 52 54 58 60 60 58 57 56 55 56 58
34 30 29 29 31 32 32 32 32 31 30 30 29 29 31 32 35 38 41 46 51 56 64 70 70 68 67 65 63 62 61 60 59 58 57 56 52 49 49 50 50 49 48 47 44 43 43 44 46 48 50 52 55 57 60 61 59 57 56 55 54 56 59
27 26 26 28 30 31 30 29 29 27 26 26 24 23 23 22 25 29 33 38 43 47 54 62 64 64 63 62 61 61 60 59 58 56 55 54 50 46 46 47 48 48 47 46 44 44 45 47 50 51 52 54 57 60 61 59 56 55 55 54 55 57 59
25 25 26 28 29 29 27 25 25 23 22 20 19 20 19 17 19 25 29 32 36 40 45 52 56 57 57 56 57 58 58 58 57 56 55 51 46 44 45 47 48 47 46 45 44 45 47 49 51 52 54 57 60 61 58 54 53 53 54 54 56 57 57
24 25 26 27 26 25 23 21 19 19 17 16 16 18 17 15 19 25 28 29 32 35 39 44 49 51 51 52 54 55 54 55 55 54 52 48 45 45 46 47 48 47 45 44 44 45 47 50 51 54 57 59 59 57 53 51 52 53 54 55 56 55 56
20 21 24 24 22 21 19 15 15 15 13 13 15 17 16 16 21 25 27 30 32 34 36 39 42 45 47 47 48 50 51 51 50 50 48 45 45 45 45 45 46 45 44 45 44 45 48 51 53 56 58 57 55 51 50 51 52 53 54 54 54 55 57
17 19 20 18 17 16 13 11 12 12 12 13 13 13 14 17 21 24 28 31 34 34 35 36 37 40 42 43 44 47 48 47 46 45 44 43 43 43 42 42 43 43 44 44 44 46 49 52 53 54 53 51 49 49 50 51 52 52 52 52 53 56 58
17 18 15 14 14 11 9 10 12 12 12 12 12 12 16 19 22 24 26 28 30 32 34 35 36 37 40 41 42 43 43 42 42 41 41 41 40 39 39 39 39 41 42 43 44 47 50 52 52 50 48 47 48 49 50 50 49 49 50 51 54 56 57
14 12 11 12 11 8 8 11 13 13 13 13 13 14 17 19 22 25 27 27 28 29 31 33 35 36 37 38 39 38 38 37 37 37 38 38 38 37 37 37 38 39 41 42 44 47 50 50 49 46 45 46 48 48 48 47 47 48 50 52 53 54 55
8 9 12 11 9 9 11 12 13 14 15 16 16 16 17 18 20 22 26 29 30 29 31 32 33 35 36 36 35 34 33 32 32 32 33 34 35 36 37 38 39 40 41 43 46 47 48 47 45 44 45 46 46 45 45 45 46 47 49 50 51 53 54
6 10 11 7 7 10 12 13 14 16 16 17 18 19 21 22 21 20 23 26 27 28 29 30 31 32 32 31 30 29 28 27 28 29 30 32 34 37 39 40 40 42 43 45 46 46 45 43 42 43 44 44 43 43 43 44 45 46 47 48 50 53 55
8 10 9 7 5 8 14 14 14 15 16 16 17 19 21 23 24 23 22 22 22 23 24 25 25 25 25 24 24 24 24 25 27 28 30 32 35 38 39 40 41 42 43 44 44 43 41 40 41 41 41 41 41 41 41 42 42 43 45 47 50 53 54
12 12 10 7 5 10 15 15 15 15 15 14 15 16 17 19 20 20 18 19 20 20 20 19 19 19 19 20 20 21 23 25 28 30 31 33 35 37 38 39 40 40 40 39 38 38 38 38 38 39 39 39 39 38 39 39 40 42 45 47 49 51 53
9 9 9 7 7 12 15 15 16 15 14 13 13 14 15 15 16 15 16 17 18 17 15 15 15 16 17 18 19 22 25 27 29 31 33 34 35 36 37 37 37 36 35 34 34 34 35 35 36 36 36 36 35 35 36 38 40 42 45 46 48 49 50
6 6 7 8 10 14 15 15 15 14 13 11 10 11 13 14 14 14 15 15 14 13 13 13 14 15 16 18 20 23 25 27 29 30 32 32 33 34 33 33 32 32 31 31 31 32 33 33 33 33 32 32 32 34 36 38 40 42 43 45 45 45 45
7 7 7 8 11 13 13 13 12 11 10 10 11 13 14 14 13 13 12 11 11 11 12 14 15 16 16 16 18 19 21 23 25 26 27 28 29 29 30 30 30 29 29 30 30 31 31 30 30 29 29 30 32 34 36 38 39 41 42 42 43 42 40
6 6 6 7 9 9 9 9 9 10 10 11 12 13 14 13 12 11 10 11 11 12 13 15 16 16 16 15 15 16 17 18 19 21 22 23 24 26 27 27 27 27 28 28 28 28 27 26 26 27 28 30 32 34 36 38 39 40 41 40 40 39 38
3 3 4 5 7 8 8 8 9 10 10 10 10 10 10 11 11 11 12 12 13 13 14 15 15 15 14 14 14 14 15 16 16 17 18 19 21 22 23 24 25 25 26 25 25 24 23 23 25 26 29 31 33 34 36 38 39 39 40 39 38 37 37
4 3 2 3 5 7 8 8 9 9 9 9 8 8 10 11 13 14 15 13 12 12 13 14 14 13 13 13 14 14 14 14 14 15 16 17 18 20 21 22 22 22 22 22 21 21 21 23 25 27 29 31 33 34 36 37 38 38 38 38 37 37 36
6 7 4 2 4 6 8 9 9 9 9 9 8 9 11 13 15 16 15 13 12 12 13 13 13 13 13 14 15 14 14 14 14 14 15 16 17 18 19 19 19 19 19 18 18 19 21 24 26 28 29 31 33 34 36 37 37 37 37 37 37 37 37
4 7 8 6 3 4 6 8 9 9 9 9 9 10 12 13 13 14 14 13 13 13 13 13 13 13 14 15 15 14 13 13 13 13 14 15 16 17 17 17 17 16 16 17 18 20 23 25 27 28 30 31 33 34 35 36 36 36 36 36 37 37 37
4 3 6 9 8 7 6 7 8 9 9 10 11 12 13 13 13 13 14 14 14 13 13 13 13 13 14 14 14 13 13 13 13 14 14 15 16 16 16 15 15 15 15 17 19 22 24 25 27 28 30 31 33 34 34 35 35 35 36 36 36 37 37
6 4 3 5 8 10 11 10 10 10 11 12 12 13 14 14 13 14 14 14 14 14 13 13 13 14 15 15 14 14 14 14 14 14 14 15 15 15 14 13 14 14 16 18 20 23 25 26 27 29 30 32 33 33 33 34 34 34 35 35 36 37 37
Wind_Direction
255 254 253 253 253 253 252 251 250 249 251 253 253 253 253 252 251 251 252 253 251 249 250 251 251 250 248 247 249 252 253 254 252 251 251 252 254 254 254 254 255 255 255 253 254 254 253 251 251 251 252 253 255 256 257 258 259 260 261 262 262 263 264
256 255 254 253 252 251 251 250 249 247 248 250 251 251 252 252 251 250 250 251 250 248 249 250 251 251 250 249 250 251 252 252 252 251 251 252 254 255 255 255 256 255 255 254 253 254 254 253 253 253 254 254 255 257 258 259 259 259 260 261 263 264 266
257 257 256 255 253 251 250 249 248 247 247 248 249 250 249 249 250 250 249 249 248 247 247 248 249 250 251 252 251 250 250 250 249 250 251 252 254 256 255 255 256 255 254 253 253 254 255 256 255 256 256 256 255 256 257 258 259 259 261 262 264 266 268
259 258 257 255 253 251 250 249 248 248 248 248 248 248 248 247 247 247 247 247 247 247 246 247 249 249 251 252 252 250 249 248 247 247 249 250 252 254 254 255 256 257 257 255 254 254 256 257 256 255 255 255 256 256 257 258 259 261 262 264 266 268 269
263 262 260 257 255 253 251 249 248 248 248 248 248 248 247 246 244 244 245 245 246 246 246 246 247 248 250 251 251 249 248 247 245 244 245 247 249 252 252 253 257 259 259 259 257 255 255 255 256 255 255 256 258 259 260 261 262 264 265 267 268 269 270
270 268 265 262 259 256 254 252 250 249 248 248 247 247 246 245 243 242 242 243 243 243 244 244 244 246 248 250 249 248 247 246 244 242 242 244 246 248 248 251 256 258 259 259 259 258 256 256 256 257 257 258 259 261 262 263 265 266 267 268 269 270 272
278 276 273 269 265 262 258 255 253 251 250 248 247 246 245 243 242 240 240 240 240 240 240 241 242 244 246 248 247 246 246 245 243 241 241 244 245 247 248 251 255 255 255 257 259 259 258 256 257 258 258 259 260 261 263 264 266 267 268 269 270 271 273
283 281 279 276 272 268 263 260 257 255 253 251 249 247 245 243 241 240 237 236 236 237 238 239 239 241 243 245 245 244 244 245 244 241 240 243 246 248 249 252 254 254 254 256 258 257 256 255 256 257 258 260 262 264 266 267 267 267 268 269 271 272 273
284 283 282 281 278 274 269 265 262 260 257 255 252 250 247 245 242 240 237 234 232 234 235 235 236 237 239 241 243 243 242 244 246 244 241 241 244 246 248 250 253 254 255 256 255 253 252 253 254 256 258 261 264 267 269 269 269 268 268 269 271 272 273
285 285 285 283 280 276 272 268 265 263 261 259 257 254 251 248 244 242 239 235 231 230 232 232 233 234 235 238 240 241 241 242 245 247 245 243 242 244 246 247 249 253 253 251 250 249 250 251 253 257 262 266 269 271 272 271 270 270 269 270 271 272 273
286 286 285 283 279 275 271 269 267 266 264 262 261 258 255 252 247 243 240 237 232 229 229 230 230 231 233 235 237 239 240 241 244 247 249 247 244 243 244 246 248 249 247 245 246 247 249 252 256 261 267 272 275 277 278 276 273 271 270 271 272 273 274
287 286 284 279 275 272 271 270 269 267 264 261 260 259 257 254 250 244 240 238 234 228 226 227 228 229 231 232 234 236 238 242 244 246 250 250 247 244 244 247 249 247 242 242 245 247 251 255 260 265 270 274 277 280 281 279 275 273 272 272 273 274 275
287 284 279 274 271 270 269 269 267 263 259 258 259 260 257 252 248 245 239 236 233 228 225 225 225 226 228 230 231 234 237 241 244 247 249 249 247 245 245 247 249 245 241 244 248 250 254 259 264 268 271 275 279 281 281 278 275 273 272 273 274 275 275
285 280 273 269 269 268 267 265 262 257 256 262 263 261 258 251 246 242 236 231 229 226 224 224 223 223 225 228 229 231 234 239 243 245 247 247 247 247 247 248 247 243 242 246 249 252 257 262 266 270 275 277 279 281 281 277 273 272 272 273 274 275 277
280 273 268 268 267 267 267 265 259 254 259 267 267 261 258 252 244 238 231 225 223 222 222 223 223 221 222 226 228 229 232 237 241 243 245 246 247 247 248 248 245 242 244 248 250 254 259 264 269 274 277 278 279 281 280 275 272 272 272 273 274 276 279
274 269 266 265 265 267 268 262 254 255 265 270 267 261 256 249 240 231 221 214 214 216 219 222 223 221 221 224 227 229 231 236 240 243 244 246 248 248 248 245 242 243 246 248 252 257 261 265 270 274 276 278 280 281 278 273 271 271 272 273 275 278 281
273 269 265 264 267 269 264 253 252 262 269 265 258 253 249 239 223 210 201 201 206 212 218 221 221 220 220 223 226 229 232 235 238 241 244 247 248 247 244 241 241 244 247 250 255 259 262 266 271 274 276 278 279 278 273 270 270 271 272 275 277 279 281
277 272 269 269 270 265 254 249 257 265 264 255 244 240 236 223 203 193 192 197 205 211 217 220 221 220 220 223 226 228 231 234 236 239 243 246 246 243 241 241 243 246 248 252 257 261 265 269 273 274 276 276 275 272 269 267 268 271 274 277 278 279 280
284 281 277 273 264 253 245 247 257 258 249 240 235 231 226 214 202 198 199 203 206 210 214 216 220 222 223 225 228 229 230 233 236 240 243 244 243 241 243 245 247 248 251 255 259 264 267 271 272 273 273 272 270 268 266 267 269 273 276 277 278 279 280
294 292 283 264 243 238 242 243 245 242 231 226 227 221 212 202 196 198 204 208 210 212 211 211 215 220 222 225 228 230 231 233 237 241 242 241 241 243 246 249 249 250 253 257 261 266 269 271 270 270 269 268 266 266 267 269 272 274 275 276 277 280 281
300 294 272 237 221 229 238 230 227 223 215 214 214 203 196 193 191 195 204 210 214 216 214 213 213 215 218 221 225 229 232 234 237 238 238 238 240 244 247 248 249 252 255 258 263 266 267 268 267 267 266 265 265 267 269 271 273 273 275 277 279 281 284
300 280 234 209 209 216 220 219 217 212 207 206 203 194 193 197 199 200 205 209 211 211 210 211 212 213 216 219 222 226 228 230 233 235 235 238 242 245 247 249 251 253 256 259 262 263 264 265 265 264 263 264 267 268 270 271 272 274 276 279 281 285 288
286 237 205 196 201 209 216 214 203 199 199 198 198 196 198 204 207 206 206 208 208 205 204 206 209 213 216 218 220 222 224 228 232 235 237 240 243 245 249 252 253 255 257 259 260 261 262 262 262 261 263 266 268 268 269 271 273 276 279 282 285 289 291
235 213 208 218 223 207 201 195 189 192 196 198 201 203 204 208 214 212 207 205 203 202 203 206 209 212 214 216 218 221 225 230 235 238 240 242 244 246 249 251 253 254 256 258 259 259 260 260 260 262 264 266 267 268 270 273 277 280 283 287 289 291 293
213 215 222 245 242 186 179 186 196 203 204 204 207 209 206 207 211 210 203 196 195 196 199 203 206 209 213 216 221 226 230 235 240 243 244 246 247 248 248 249 250 252 254 256 257 257 258 259 260 262 264 265 267 270 273 277 281 284 287 289 291 293 296
212 220 226 241 224 181 184 199 211 215 213 205 199 197 196 193 194 195 193 191 194 196 197 201 206 212 217 222 228 233 237 241 245 248 250 251 250 249 247 247 249 251 253 255 255 256 257 258 260 261 263 265 269 273 277 281 284 286 289 291 294 297 299
202 210 217 222 205 190 195 206 212 212 207 195 183 182 184 181 180 185 190 193 194 194 197 204 213 218 222 227 232 236 240 244 247 250 251 251 250 248 248 248 249 250 251 252 252 254 256 257 259 262 265 269 274 278 281 284 286 288 291 294 297 300 302
169 190 198 199 197 197 200 205 206 204 198 189 180 179 180 176 175 179 183 185 187 193 203 214 222 225 228 232 235 238 241 244 247 248 249 248 247 247 247 247 247 247 248 250 252 254 256 258 261 265 269 273 277 280 282 285 288 291 294 297 300 302 304
177 185 188 190 194 199 201 201 198 197 192 181 172 171 173 173 176 181 186 190 197 206 217 224 229 231 231 233 237 239 240 241 243 243 243 243 243 243 243 244 245 246 248 250 253 255 257 260 264 269 273 276 278 281 284 287 290 293 296 299 301 303 304
176 177 179 185 189 193 195 193 187 183 179 169 163 167 172 178 189 201 208 212 216 223 227 228 229 229 227 228 233 234 235 236 237 237 238 238 239 240 242 243 245 247 249 251 253 256 260 265 269 273 275 277 280 284 287 290 292 295 298 301 302 303 305
171 164 157 170 185 190 189 185 181 179 177 173 173 178 184 192 206 219 225 226 226 226 225 223 223 222 222 225 231 235 238 240 241 241 240 240 240 241 242 243 245 246 248 251 255 260 265 270 273 275 277 280 284 287 290 292 295 298 300 302 303 305 306
202 212 141 134 170 189 190 186 183 181 182 187 195 203 207 214 222 227 229 229 225 220 218 218 220 221 223 228 235 241 245 248 249 248 247 245 243 242 242 243 245 247 251 256 261 265 269 272 274 277 281 285 288 291 293 295 299 301 302 304 305 306 307
200 222 227 167 149 172 185 189 192 194 199 203 206 210 216 223 227 229 230 228 221 217 219 221 222 224 228 233 240 246 251 253 253 252 251 248 245 243 243 245 249 252 257 262 265 268 271 274 277 282 286 289 292 294 296 299 301 302 304 306 307 308 308
172 207 223 226 198 173 182 191 197 204 209 211 211 216 223 227 228 227 226 224 220 219 222 223 225 227 231 236 243 249 253 256 257 257 255 252 249 248 249 252 255 259 262 265 267 270 274 279 283 287 290 292 294 297 299 300 302 304 306 307 308 309 309
90 157 207 222 222 215 208 209 211 214 218 219 220 223 226 227 223 218 217 216 217 218 221 222 225 229 233 237 243 249 255 260 262 262 260 257 255 255 256 257 260 262 264 267 270 275 280 285 288 291 292 294 296 298 299 302 304 305 307 307 308 308 308
72 96 145 204 219 221 220 221 224 228 230 230 228 225 224 223 220 216 214 213 214 217 221 223 226 229 233 237 243 251 259 264 265 264 262 259 258 259 259 260 262 264 267 273 278 282 286 289 291 293 295 296 298 299 301 304 305 306 306 307 307 306 306
Height
5326 5328 5330 5332 5336 5339 5341 5344 5347 5349 5350 5352 5355 5358 5360 5363 5366 5371 5375 5378 5382 5386 5387 5389 5393 5395 5398 5400 5401 5402 5404 5405 5407 5408 5410 5411 5412 5413 5414 5414 5415 5416 5417 5419 5419 5418 5418 5419 5420 5422 5422 5423 5424 5425 5426 5428 5429 5430 5430 5431 5431 5431 5431
5316 5318 5319 5322 5325 5327 5329 5332 5334 5337 5338 5341 5344 5346 5348 5350 5353 5358 5362 5366 5371 5376 5377 5379 5383 5386 5389 5391 5392 5394 5396 5398 5399 5401 5402 5404 5405 5406 5407 5407 5407 5408 5409 5411 5412 5411 5411 5412 5413 5414 5415 5415 5417 5417 5418 5419 5421 5421 5422 5422 5422 5423 5423
5307 5308 5309 5311 5313 5315 5317 5319 5321 5323 5326 5329 5332 5334 5336 5339 5341 5345 5349 5354 5359 5364 5366 5368 5372 5376 5379 5382 5383 5386 5388 5390 5391 5393 5394 5396 5398 5398 5400 5400 5400 5401 5402 5403 5405 5405 5405 5405 5406 5407 5407 5407 5408 5409 5410 5411 5412 5413 5413 5414 5414 5414 5414
5299 5299 5300 5300 5301 5303 5304 5306 5308 5310 5313 5315 5318 5321 5324 5327 5329 5332 5336 5341 5347 5351 5354 5357 5361 5366 5370 5372 5374 5377 5380 5382 5384 5385 5386 5388 5390 5391 5392 5393 5393 5394 5395 5396 5397 5398 5399 5399 5399 5399 5399 5399 5400 5401 5402 5403 5404 5404 5405 5405 5405 5405 5406
5292 5292 5291 5291 5291 5291 5293 5294 5296 5297 5300 5302 5305 5307 5311 5315 5317 5320 5323 5327 5333 5339 5342 5346 5351 5357 5360 5362 5365 5368 5372 5374 5376 5377 5378 5380 5382 5384 5385 5386 5386 5387 5388 5389 5390 5391 5392 5392 5392 5392 5392 5392 5392 5393 5394 5395 5396 5396 5397 5397 5396 5397 5397
5285 5284 5283 5283 5282 5282 5282 5283 5283 5285 5287 5289 5291 5294 5297 5301 5305 5308 5311 5315 5321 5326 5330 5335 5341 5347 5350 5352 5356 5360 5363 5366 5367 5368 5370 5372 5374 5376 5377 5379 5379 5380 5381 5382 5383 5384 5385 5385 5385 5385 5386 5385 5386 5387 5387 5387 5388 5389 5389 5389 5388 5388 5388
5275 5274 5274 5273 5273 5273 5272 5272 5272 5273 5274 5276 5278 5280 5283 5286 5290 5294 5299 5303 5307 5312 5318 5324 5330 5336 5340 5344 5347 5351 5354 5356 5358 5360 5362 5364 5366 5368 5370 5371 5373 5374 5375 5376 5377 5378 5378 5378 5378 5378 5379 5379 5379 5381 5381 5380 5381 5382 5381 5381 5381 5381 5380
5266 5265 5264 5263 5263 5262 5261 5261 5262 5262 5263 5263 5264 5266 5269 5272 5276 5280 5285 5291 5295 5300 5306 5312 5318 5325 5330 5334 5338 5342 5345 5347 5349 5352 5354 5357 5358 5360 5362 5364 5366 5367 5368 5369 5370 5371 5371 5371 5372 5372 5372 5372 5373 5374 5374 5374 5374 5374 5374 5373 5373 5373 5371
5257 5256 5255 5253 5252 5252 5251 5250 5250 5250 5250 5251 5251 5253 5255 5259 5262 5266 5272 5278 5283 5288 5294 5301 5307 5314 5320 5324 5328 5332 5335 5338 5341 5344 5346 5349 5351 5353 5355 5357 5359 5361 5362 5363 5364 5364 5364 5365 5365 5365 5365 5366 5367 5367 5367 5367 5367 5367 5366 5365 5365 5365 5362
5249 5247 5245 5244 5242 5241 5240 5240 5240 5239 5239 5238 5239 5240 5242 5246 5250 5254 5258 5265 5271 5277 5284 5290 5297 5304 5310 5314 5318 5323 5326 5329 5333 5336 5339 5341 5343 5345 5348 5350 5352 5354 5355 5356 5356 5357 5357 5358 5359 5358 5358 5359 5360 5360 5360 5360 5360 5359 5358 5357 5358 5358 5354
5240 5238 5236 5234 5233 5232 5230 5230 5230 5230 5229 5228 5229 5229 5231 5234 5238 5242 5246 5251 5259 5267 5274 5281 5288 5294 5299 5304 5309 5314 5318 5321 5325 5329 5331 5333 5336 5338 5341 5343 5344 5346 5347 5348 5349 5350 5351 5352 5352 5351 5351 5352 5353 5353 5353 5353 5352 5351 5350 5350 5351 5350 5347
5231 5229 5227 5225 5224 5223 5222 5222 5222 5222 5221 5221 5221 5221 5222 5224 5227 5230 5235 5240 5247 5257 5265 5271 5278 5284 5290 5296 5300 5305 5309 5313 5317 5321 5324 5326 5328 5331 5333 5335 5337 5339 5340 5341 5342 5344 5345 5345 5345 5344 5344 5345 5345 5346 5346 5345 5344 5343 5342 5343 5342 5342 5340
5223 5221 5219 5217 5217 5216 5216 5216 5216 5215 5215 5215 5215 5214 5214 5215 5217 5220 5225 5231 5238 5247 5255 5262 5269 5276 5282 5287 5292 5297 5302 5306 5310 5313 5316 5318 5321 5323 5325 5328 5330 5332 5333 5334 5336 5338 5338 5338 5338 5338 5337 5337 5338 5339 5339 5338 5336 5335 5334 5335 5334 5334 5331
5214 5213 5212 5211 5210 5210 5210 5211 5210 5210 5210 5209 5210 5209 5207 5208 5210 5212 5216 5222 5229 5237 5245 5253 5260 5268 5274 5280 5285 5290 5295 5299 5303 5306 5309 5311 5314 5316 5318 5320 5323 5325 5326 5328 5330 5332 5332 5331 5331 5331 5330 5330 5330 5331 5331 5330 5328 5327 5326 5327 5327 5325 5322
5207 5206 5206 5205 5205 5205 5205 5206 5205 5205 5205 5205 5204 5204 5202 5203 5204 5206 5210 5216 5223 5230 5238 5245 5253 5260 5267 5273 5278 5283 5288 5291 5295 5299 5302 5304 5307 5309 5311 5313 5315 5317 5319 5322 5324 5325 5325 5324 5324 5324 5324 5323 5323 5324 5323 5322 5321 5319 5319 5319 5319 5317 5313
5202 5202 5201 5201 5200 5199 5200 5200 5200 5201 5201 5200 5200 5200 5199 5200 5201 5202 5206 5213 5220 5227 5233 5240 5247 5254 5261 5267 5272 5277 5281 5284 5288 5292 5295 5298 5301 5303 5304 5306 5308 5310 5313 5316 5318 5319 5318 5318 5318 5318 5317 5317 5317 5317 5316 5314 5313 5312 5311 5312 5311 5308 5305
5198 5197 5197 5196 5196 5195 5195 5196 5197 5197 5197 5197 5197 5197 5198 5199 5200 5202 5206 5213 5219 5225 5231 5236 5243 5250 5256 5261 5266 5271 5275 5279 5283 5287 5290 5292 5294 5296 5298 5299 5301 5304 5307 5310 5311 5311 5312 5312 5312 5311 5310 5310 5310 5310 5309 5307 5306 5304 5303 5304 5303 5300 5297
5194 5193 5193 5192 5192 5191 5192 5193 5194 5194 5194 5194 5195 5195 5197 5199 5201 5203 5208 5213 5218 5224 5228 5233 5239 5245 5250 5256 5261 5265 5270 5274 5278 5282 5284 5286 5288 5290 5291 5293 5296 5299 5302 5303 5304 5305 5305 5306 5305 5304 5303 5304 5303 5303 5302 5301 5300 5298 5296 5296 5294 5292 5290
5191 5190 5189 5188 5188 5188 5190 5191 5191 5192 5192 5193 5194 5194 5196 5199 5201 5204 5208 5212 5216 5221 5225 5230 5235 5241 5246 5252 5256 5261 5265 5270 5273 5276 5278 5280 5282 5284 5285 5288 5291 5294 5295 5296 5297 5298 5298 5299 5299 5298 5297 5297 5296 5296 5296 5295 5293 5291 5290 5288 5286 5284 5282
5188 5187 5186 5185 5186 5187 5188 5189 5190 5190 5191 5192 5193 5194 5196 5198 5200 5203 5207 5210 5214 5218 5222 5227 5232 5237 5243 5248 5253 5257 5261 5265 5268 5270 5272 5274 5276 5278 5280 5283 5286 5287 5288 5289 5290 5291 5291 5292 5293 5292 5291 5290 5290 5289 5289 5288 5286 5285 5283 5281 5279 5276 5273
5186 5185 5184 5184 5185 5186 5187 5188 5189 5189 5190 5192 5193 5194 5196 5198 5200 5203 5206 5209 5213 5217 5221 5225 5230 5235 5240 5245 5249 5253 5257 5260 5262 5264 5266 5268 5270 5273 5276 5278 5280 5280 5281 5283 5283 5284 5285 5286 5286 5285 5284 5284 5284 5283 5282 5281 5279 5277 5275 5273 5271 5268 5265
5184 5183 5183 5184 5185 5186 5187 5187 5188 5189 5190 5191 5193 5194 5196 5198 5200 5203 5206 5209 5212 5215 5219 5224 5228 5233 5237 5242 5246 5249 5252 5255 5257 5259 5261 5263 5266 5269 5271 5272 5273 5274 5275 5276 5277 5278 5279 5279 5279 5278 5278 5278 5277 5276 5275 5274 5272 5270 5268 5266 5263 5260 5257
5183 5182 5183 5184 5185 5186 5186 5187 5188 5189 5190 5191 5193 5195 5196 5198 5200 5203 5205 5208 5210 5214 5218 5222 5226 5231 5235 5239 5242 5245 5247 5250 5252 5253 5256 5259 5261 5264 5266 5267 5268 5269 5270 5270 5271 5272 5272 5272 5272 5272 5272 5271 5271 5270 5269 5267 5265 5263 5260 5258 5255 5252 5249
5183 5183 5183 5184 5185 5185 5186 5187 5188 5189 5191 5192 5194 5195 5197 5198 5200 5202 5205 5207 5210 5214 5218 5221 5225 5229 5232 5235 5238 5240 5243 5245 5247 5249 5252 5255 5257 5259 5260 5261 5262 5263 5264 5265 5266 5266 5266 5266 5266 5266 5265 5265 5264 5263 5262 5260 5258 5256 5253 5250 5248 5244 5241
5183 5183 5184 5184 5184 5185 5186 5187 5188 5190 5191 5192 5194 5195 5197 5199 5200 5202 5205 5208 5211 5214 5217 5221 5224 5227 5229 5232 5234 5236 5239 5241 5243 5245 5248 5250 5252 5253 5254 5256 5257 5258 5259 5259 5260 5260 5260 5260 5260 5260 5259 5259 5258 5257 5255 5253 5251 5249 5247 5244 5240 5236 5233
5183 5184 5184 5184 5184 5185 5186 5187 5188 5190 5191 5192 5193 5195 5197 5198 5200 5203 5205 5208 5211 5214 5217 5219 5222 5224 5226 5228 5231 5233 5235 5237 5239 5241 5243 5245 5246 5248 5249 5251 5252 5253 5253 5254 5254 5255 5255 5255 5255 5254 5254 5253 5252 5250 5249 5247 5245 5243 5240 5237 5234 5229 5225
5184 5185 5185 5184 5185 5186 5186 5187 5188 5190 5191 5192 5193 5195 5196 5198 5200 5203 5205 5208 5211 5213 5216 5217 5219 5221 5223 5225 5228 5230 5232 5234 5236 5238 5239 5240 5242 5243 5245 5246 5247 5248 5249 5249 5250 5250 5250 5250 5249 5249 5248 5247 5246 5244 5243 5241 5239 5237 5234 5231 5227 5223 5219
5186 5186 5186 5186 5186 5187 5187 5188 5189 5190 5191 5193 5194 5195 5196 5198 5200 5203 5205 5208 5210 5212 5214 5216 5218 5220 5222 5223 5225 5228 5230 5232 5233 5234 5236 5237 5238 5240 5241 5242 5243 5244 5244 5245 5245 5245 5245 5245 5244 5244 5243 5242 5240 5239 5238 5236 5233 5231 5228 5225 5221 5218 5214
5186 5186 5186 5187 5187 5187 5188 5189 5190 5191 5192 5193 5194 5196 5197 5199 5201 5203 5205 5208 5210 5211 5213 5215 5216 5218 5220 5222 5224 5226 5228 5229 5231 5231 5233 5234 5235 5236 5237 5238 5239 5239 5240 5240 5240 5240 5240 5240 5239 5238 5238 5237 5236 5234 5232 5230 5228 5225 5223 5219 5216 5212 5209
5186 5186 5186 5186 5187 5188 5188 5189 5190 5191 5192 5194 5195 5197 5198 5200 5201 5203 5205 5207 5209 5210 5212 5214 5215 5217 5219 5221 5223 5225 5226 5227 5228 5229 5230 5231 5232 5232 5233 5234 5235 5235 5236 5236 5236 5236 5235 5235 5234 5234 5233 5232 5231 5229 5227 5225 5223 5220 5217 5214 5211 5207 5204
5186 5186 5187 5187 5187 5188 5189 5190 5191 5192 5193 5194 5196 5197 5199 5200 5201 5203 5204 5206 5208 5210 5211 5213 5215 5216 5218 5220 5221 5223 5224 5224 5225 5226 5227 5228 5229 5229 5230 5230 5231 5231 5232 5232 5231 5231 5231 5230 5230 5229 5229 5227 5226 5224 5222 5219 5217 5214 5211 5208 5205 5202 5199
5187 5187 5187 5188 5188 5189 5190 5191 5192 5193 5194 5196 5197 5198 5199 5200 5201 5202 5204 5205 5207 5209 5210 5212 5214 5215 5217 5218 5219 5220 5221 5222 5223 5224 5224 5225 5226 5226 5227 5227 5227 5227 5227 5227 5227 5227 5227 5227 5226 5225 5224 5222 5221 5219 5216 5214 5211 5208 5205 5202 5199 5196 5194
5188 5188 5188 5189 5189 5190 5191 5192 5193 5194 5195 5196 5198 5198 5199 5200 5201 5202 5203 5205 5207 5208 5209 5211 5212 5214 5215 5216 5217 5218 5219 5220 5221 5221 5222 5222 5223 5223 5223 5223 5223 5224 5224 5223 5223 5223 5223 5223 5222 5221 5219 5218 5216 5213 5211 5208 5206 5203 5200 5197 5194 5191 5188
5188 5188 5189 5189 5190 5191 5192 5193 5194 5195 5196 5197 5198 5198 5199 5200 5201 5202 5203 5204 5206 5207 5208 5209 5211 5212 5213 5215 5216 5216 5217 5218 5218 5219 5219 5220 5220 5220 5220 5220 5220 5220 5220 5220 5220 5220 5220 5219 5218 5216 5215 5213 5211 5208 5206 5203 5201 5198 5195 5192 5189 5185 5182
5189 5189 5189 5190 5190 5191 5192 5193 5194 5195 5196 5196 5197 5198 5199 5199 5200 5201 5202 5203 5205 5206 5207 5208 5210 5211 5212 5213 5214 5214 5215 5216 5216 5216 5217 5217 5217 5217 5217 5217 5217 5217 5217 5217 5217 5217 5216 5215 5213 5212 5210 5208 5206 5204 5202 5199 5196 5193 5190 5187 5184 5181 5178
5190 5190 5190 5190 5191 5191 5192 5193 5194 5194 5195 5196 5197 5197 5198 5199 5200 5201 5201 5203 5204 5205 5206 5207 5208 5209 5210 5211 5212 5213 5213 5214 5214 5214 5214 5214 5215 5214 5214 5214 5215 5215 5215 5214 5214 5213 5212 5211 5209 5207 5205 5204 5202 5200 5197 5195 5192 5189 5186 5183 5180 5177 5174